- Welcome to our website - Welkom op onze website -
This weather station has been re-located to Amsterdam Osdorp recently (1st of June 2018).
Data uploads and weather information will commence again when the station is installed in Osdorp, calibrated and the website refreshed.

Dit weerstation is recentelijk verhuisd naar Amsterdam Osdorp.
De weergegevens zijn nog onvolledig omdat het weerstation nog wordt geïnstalleerd en gekalibreerd.

Onweer radar Meer informatie blitzortung!


Regen radar Meer informatie rain snow radar


U vindt ons ook hier:

Weather Underground


Het weer levert geen direct gevaar op.    Er zijn geen waarschuwingen afgegeven.

Weather Underground Historische gegevens

Dagelijkse Samenvatting juni 19, 2018 Eenheden:  Metrisch    Engels   Beide
« Vorige Dag
Volgende Dag »
Dagelijkse Wekelijkse Maandelijkse Jaarlijkse Aangepaste
  Huidig: Hoog: Laag: Gemiddeld:
Temperatuur: -6.8 °C -17.8 °C -27.7 °C -7.8 °C
Dauwpunt: -9.4 °C -17.8 °C -27.7 °C -9.6 °C
Vochtigheid: 75 % Humidity % % 82 %
Wind snelheid: 2.9 km/h 0 km/h 0 km/h 9 km/h
Windvlaag: 23.3 km/h 0 km/h - -
Wind:West - - WSW
Luchtdruk: 34659.1 hPa 0 hPa 0 hPa -
Neerslag: 0 mm      
Historical Graphs
 
 
Tabel voor juni 19, 2018
Tijd Temperatuur Dauwpunt Luchtdruk Wind Wind snelheid Windvlaag Vochtigheid Regenval per uur
-17.8 °C -17.8 °C 0 hPa Calm     Humidity % 0 mm
00:04 -8.9 °C -10.3 °C 34520.3 hPa WNW 8 km/h 33.6 km/h 85 % 0 mm
00:09 -8.9 °C -10.3 °C 34520.3 hPa SW 11.1 km/h 33.6 km/h 85 % 0 mm
00:14 -9 °C -10.4 °C 34520.3 hPa Calm   31.1 km/h 85 % 0 mm
00:19 -9 °C -10.4 °C 34520.3 hPa Calm   33.6 km/h 85 % 0 mm
00:24 -9 °C -10.4 °C 34520.3 hPa Calm   38.8 km/h 85 % 0 mm
00:29 -9 °C -10.4 °C 34520.3 hPa WSW 5.1 km/h 33.6 km/h 85 % 0 mm
00:34 -9 °C -10.3 °C 34510.1 hPa SSW 19.2 km/h 23.3 km/h 86 % 0 mm
00:39 -8.9 °C -10.3 °C 34520.3 hPa SW 14 km/h 25.9 km/h 85 % 0 mm
00:44 -8.9 °C -10.3 °C 34510.1 hPa NW 2.9 km/h 23.3 km/h 85 % 0 mm
00:49 -8.9 °C -10.3 °C 34520.3 hPa Calm   2.6 km/h 85 % 0 mm
00:54 -8.9 °C -10.3 °C 34510.1 hPa Calm   5.1 km/h 85 % 0 mm
00:59 -8.9 °C -10.3 °C 34510.1 hPa Calm   28.5 km/h 85 % 0 mm
01:04 -8.9 °C -10.3 °C 34510.1 hPa WSW 19.2 km/h 23.3 km/h 85 % 0 mm
01:09 -8.9 °C -10.3 °C 34510.1 hPa NW 11.1 km/h 31.1 km/h 85 % 0 mm
01:14 -8.9 °C -10.3 °C 34510.1 hPa SSW 19.2 km/h 36.2 km/h 85 % 0 mm
01:19 -8.9 °C -10.3 °C 34510.1 hPa SW 14 km/h 25.9 km/h 85 % 0 mm
01:24 -8.9 °C -10.3 °C 34510.1 hPa West 11.1 km/h 31.1 km/h 85 % 0 mm
01:29 -8.9 °C -10.3 °C 34510.1 hPa WSW 22 km/h 23.3 km/h 85 % 0 mm
01:33 -8.9 °C -10.3 °C 34510.1 hPa SSW 11.1 km/h 28.5 km/h 85 % 0 mm
01:39 -8.8 °C -10.2 °C 34510.1 hPa Calm   25.9 km/h 85 % 0 mm
01:42 -8.8 °C -10.2 °C 34510.1 hPa SW 11.1 km/h 25.9 km/h 85 % 0 mm
01:49 -8.8 °C -10.2 °C 34510.1 hPa WSW 19.2 km/h 28.5 km/h 85 % 0 mm
01:54 -8.8 °C -10.2 °C 34510.1 hPa West 8 km/h 28.5 km/h 85 % 0 mm
01:59 -8.8 °C -10.2 °C 34510.1 hPa Calm   31.1 km/h 85 % 0 mm
02:03 -8.7 °C -10.1 °C 34510.1 hPa SW 16.3 km/h 18.2 km/h 85 % 0 mm
02:09 -8.7 °C -10.1 °C 34510.1 hPa SW 19.2 km/h 23.3 km/h 85 % 0 mm
02:14 -8.7 °C -10.1 °C 34510.1 hPa Calm   33.6 km/h 85 % 0 mm
02:19 -8.6 °C -9.9 °C 34520.3 hPa SW 11.1 km/h 41.4 km/h 86 % 0 mm
02:24 -8.6 °C -9.9 °C 34510.1 hPa SW 22 km/h 25.9 km/h 86 % 0 mm
02:28 -8.5 °C -9.8 °C 34510.1 hPa SSW 14 km/h 38.8 km/h 86 % 0 mm
02:34 -8.4 °C -9.8 °C 34510.1 hPa Calm   28.5 km/h 86 % 0 mm
02:39 -8.4 °C -9.8 °C 34510.1 hPa WNW 16.3 km/h 28.5 km/h 86 % 0 mm
02:44 -8.4 °C -9.8 °C 34520.3 hPa Calm   33.6 km/h 86 % 0 mm
02:49 -8.4 °C -9.8 °C 34520.3 hPa West 5.1 km/h 25.9 km/h 86 % 0 mm
02:54 -8.4 °C -9.8 °C 34520.3 hPa WSW 16.3 km/h 31.1 km/h 86 % 0 mm
02:59 -8.4 °C -9.7 °C 34520.3 hPa Calm   31.1 km/h 86 % 0 mm
03:04 -8.4 °C -9.7 °C 34520.3 hPa WSW 22 km/h 23.3 km/h 86 % 0 mm
03:09 -8.3 °C -9.7 °C 34520.3 hPa South 19.2 km/h 36.2 km/h 86 % 0 mm
03:14 -8.3 °C -9.7 °C 34520.3 hPa SSW 8 km/h 33.6 km/h 86 % 0 mm
03:19 -8.3 °C -9.7 °C 34520.3 hPa Calm   15.6 km/h 86 % 0 mm
03:24 -8.3 °C -9.7 °C 34520.3 hPa West 22 km/h 28.5 km/h 86 % 0 mm
03:29 -8.3 °C -9.7 °C 34520.3 hPa NNW 8 km/h 25.9 km/h 86 % 0 mm
03:34 -8.4 °C -9.7 °C 34520.3 hPa Calm   23.3 km/h 86 % 0 mm
03:39 -8.4 °C -9.7 °C 34520.3 hPa SW 8 km/h 18.2 km/h 86 % 0 mm
03:44 -8.4 °C -9.7 °C 34520.3 hPa SW 14 km/h 36.2 km/h 86 % 0 mm
03:49 -8.4 °C -9.6 °C 34520.3 hPa Calm   15.6 km/h 87 % 0 mm
03:53 -8.4 °C -9.6 °C 34520.3 hPa WSW 14 km/h 36.2 km/h 87 % 0 mm
03:59 -8.4 °C -9.6 °C 34520.3 hPa Calm   28.5 km/h 87 % 0 mm
04:04 -8.4 °C -9.6 °C 34520.3 hPa Calm   31.1 km/h 87 % 0 mm
04:09 -8.4 °C -9.6 °C 34520.3 hPa SW 8 km/h 25.9 km/h 87 % 0 mm
04:13 -8.4 °C -9.6 °C 34533.8 hPa Calm     87 % 0 mm
04:19 -8.3 °C -9.6 °C 34533.8 hPa WSW 14 km/h 36.2 km/h 87 % 0 mm
04:23 -8.3 °C -9.6 °C 34533.8 hPa Calm   15.6 km/h 87 % 0 mm
04:28 -8.3 °C -9.6 °C 34533.8 hPa Calm   28.5 km/h 87 % 0 mm
04:33 -8.3 °C -9.6 °C 34533.8 hPa WSW 16.3 km/h 18.2 km/h 87 % 0 mm
04:39 -8.3 °C -9.6 °C 34533.8 hPa Calm   23.3 km/h 87 % 0 mm
04:43 -8.3 °C -9.6 °C 34533.8 hPa West 5.1 km/h 28.5 km/h 87 % 0 mm
04:48 -8.3 °C -9.6 °C 34533.8 hPa WNW 5.1 km/h 23.3 km/h 87 % 0 mm
04:54 -8.3 °C -9.6 °C 34533.8 hPa WNW 30.1 km/h 31.1 km/h 87 % 0 mm
04:59 -8.4 °C -9.6 °C 34533.8 hPa SW 16.3 km/h 25.9 km/h 87 % 0 mm
05:04 -8.4 °C -9.6 °C 34533.8 hPa WNW 11.1 km/h 23.3 km/h 87 % 0 mm
05:09 -8.4 °C -9.6 °C 34544 hPa Calm   28.5 km/h 87 % 0 mm
05:14 -8.4 °C -9.6 °C 34544 hPa West 24.8 km/h 25.9 km/h 87 % 0 mm
05:19 -8.4 °C -9.6 °C 34544 hPa Calm   7.7 km/h 88 % 0 mm
05:24 -8.4 °C -9.6 °C 34544 hPa WNW 11.1 km/h 23.3 km/h 88 % 0 mm
05:29 -8.4 °C -9.6 °C 34544 hPa West 27.2 km/h 31.1 km/h 88 % 0 mm
05:34 -8.4 °C -9.6 °C 34554.1 hPa WSW 14 km/h 31.1 km/h 88 % 0 mm
05:39 -8.5 °C -9.6 °C 34554.1 hPa WSW 11.1 km/h 10.3 km/h 88 % 0 mm
05:44 -8.5 °C -9.6 °C 34554.1 hPa Calm   31.1 km/h 88 % 0 mm
05:49 -8.5 °C -9.6 °C 34554.1 hPa Calm   28.5 km/h 88 % 0 mm
05:54 -8.5 °C -9.5 °C 34554.1 hPa Calm   12.9 km/h 89 % 0 mm
05:59 -8.5 °C -9.5 °C 34554.1 hPa WSW 5.1 km/h 18.2 km/h 89 % 0 mm
06:04 -8.5 °C -9.5 °C 34554.1 hPa WNW 30.1 km/h 33.6 km/h 89 % 0 mm
06:09 -8.6 °C -9.6 °C 34554.1 hPa SW 22 km/h 31.1 km/h 89 % 0 mm
06:14 -8.6 °C -9.6 °C 34554.1 hPa WSW 5.1 km/h 23.3 km/h 89 % 0 mm
06:19 -8.6 °C -9.6 °C 34554.1 hPa Calm   5.1 km/h 89 % 0 mm
06:24 -8.5 °C -9.4 °C 34554.1 hPa WSW 22 km/h 23.3 km/h 90 % 0 mm
06:29 -8.5 °C -9.4 °C 34554.1 hPa South 11.1 km/h 28.5 km/h 90 % 0 mm
06:34 -8.5 °C -9.4 °C 34554.1 hPa Calm   25.9 km/h 90 % 0 mm
06:39 -8.5 °C -9.4 °C 34554.1 hPa WNW 5.1 km/h 33.6 km/h 90 % 0 mm
06:44 -8.5 °C -9.4 °C 34554.1 hPa Calm   15.6 km/h 90 % 0 mm
06:49 -8.5 °C -9.4 °C 34554.1 hPa Calm   12.9 km/h 90 % 0 mm
06:54 -27.7 °C -27.7 °C 0 hPa Calm   -2586.8 km/h % 0 mm
06:58 -8.5 °C -9.4 °C 34567.7 hPa SW 2.9 km/h 18.2 km/h 90 % 0 mm
07:04 -8.5 °C -9.4 °C 34567.7 hPa Calm   15.6 km/h 90 % 0 mm
07:09 -8.4 °C -9.4 °C 34567.7 hPa West 14 km/h 25.9 km/h 90 % 0 mm
07:14 -8.4 °C -9.4 °C 34567.7 hPa NW 11.1 km/h 23.3 km/h 90 % 0 mm
07:19 -8.4 °C -9.3 °C 34567.7 hPa Calm   10.3 km/h 90 % 0 mm
07:24 -8.4 °C -9.3 °C 34567.7 hPa SW 16.3 km/h 25.9 km/h 90 % 0 mm
07:29 -8.3 °C -9.3 °C 34567.7 hPa Calm   12.9 km/h 90 % 0 mm
07:34 -8.3 °C -9.2 °C 34577.8 hPa Calm   12.9 km/h 90 % 0 mm
07:39 -8.3 °C -9.2 °C 34577.8 hPa WSW 30.1 km/h 31.1 km/h 90 % 0 mm
07:44 -8.2 °C -9.2 °C 34577.8 hPa SW 19.2 km/h 28.5 km/h 90 % 0 mm
07:49 -8.2 °C -9.2 °C 34577.8 hPa NW 16.3 km/h 31.1 km/h 90 % 0 mm
07:54 -8.2 °C -9.2 °C 34577.8 hPa Calm   15.6 km/h 89 % 0 mm
07:59 -8.2 °C -9.2 °C 34577.8 hPa Calm   18.2 km/h 89 % 0 mm
08:04 -8.2 °C -9.2 °C 34577.8 hPa WNW 22 km/h 28.5 km/h 89 % 0 mm
08:09 -8.2 °C -9.2 °C 34577.8 hPa SW 8 km/h 10.3 km/h 89 % 0 mm
08:14 -8.2 °C -9.2 °C 34577.8 hPa WSW 19.2 km/h 18.2 km/h 89 % 0 mm
08:19 -8.1 °C -9.1 °C 34591.4 hPa WSW 22 km/h 25.9 km/h 89 % 0 mm
08:24 -8.1 °C -9.1 °C 34591.4 hPa SW 5.1 km/h 28.5 km/h 89 % 0 mm
08:29 -8.1 °C -9.1 °C 34591.4 hPa NW 16.3 km/h 25.9 km/h 89 % 0 mm
08:34 -8.1 °C -9.2 °C 34601.5 hPa West 2.9 km/h 33.6 km/h 88 % 0 mm
08:39 -8.1 °C -9.2 °C 34601.5 hPa WNW 27.2 km/h 38.8 km/h 88 % 0 mm
08:44 -8.1 °C -9.2 °C 34601.5 hPa West 33.2 km/h 41.4 km/h 88 % 0 mm
08:49 -8.1 °C -9.2 °C 34601.5 hPa WSW 46.8 km/h 46.7 km/h 88 % 0 mm
08:54 -8.1 °C -9.2 °C 34601.5 hPa NW 24.8 km/h 33.6 km/h 88 % 0 mm
08:59 -8.1 °C -9.2 °C 34601.5 hPa SW 22 km/h 28.5 km/h 88 % 0 mm
09:04 -8.1 °C -9.2 °C 34601.5 hPa NW 11.1 km/h 28.5 km/h 88 % 0 mm
09:09 -8.1 °C -9.2 °C 34611.7 hPa WSW 8 km/h 25.9 km/h 88 % 0 mm
09:14 -8.2 °C -9.3 °C 34601.5 hPa Calm   28.5 km/h 88 % 0 mm
09:19 -8.1 °C -9.2 °C 34611.7 hPa WSW 11.1 km/h 28.5 km/h 88 % 0 mm
09:24 -8.1 °C -9.2 °C 34611.7 hPa Calm   25.9 km/h 88 % 0 mm
09:29 -8.1 °C -9.2 °C 34611.7 hPa West 27.2 km/h 31.1 km/h 88 % 0 mm
09:34 -8.1 °C -9.2 °C 34611.7 hPa West 16.3 km/h 28.5 km/h 88 % 0 mm
09:39 -8.1 °C -9.3 °C 34611.7 hPa Calm   33.6 km/h 87 % 0 mm
09:44 -8.1 °C -9.2 °C 34611.7 hPa WNW 19.2 km/h 33.6 km/h 88 % 0 mm
09:49 -8.2 °C -9.3 °C 34625.2 hPa Calm   28.5 km/h 88 % 0 mm
09:54 -8.1 °C -9.2 °C 34625.2 hPa West 14 km/h 31.1 km/h 88 % 0 mm
09:59 -8.1 °C -9.2 °C 34625.2 hPa West 16.3 km/h 18.2 km/h 88 % 0 mm
10:04 -8.2 °C -9.3 °C 34625.2 hPa West 11.1 km/h 23.3 km/h 88 % 0 mm
10:09 -8.2 °C -9.3 °C 34635.4 hPa SW 14 km/h 23.3 km/h 88 % 0 mm
10:14 -8.2 °C -9.3 °C 34635.4 hPa West 16.3 km/h 23.3 km/h 88 % 0 mm
10:19 -8.3 °C -9.4 °C 34635.4 hPa WNW 14 km/h 28.5 km/h 88 % 0 mm
10:24 -8.3 °C -9.4 °C 34635.4 hPa WNW 24.8 km/h 25.9 km/h 88 % 0 mm
10:29 -8.3 °C -9.4 °C 34635.4 hPa West 14 km/h 33.6 km/h 88 % 0 mm
10:34 -8.4 °C -9.6 °C 34635.4 hPa NNW 24.8 km/h 46.7 km/h 87 % 0 mm
10:39 -8.4 °C -9.5 °C 34635.4 hPa WSW 16.3 km/h 33.6 km/h 88 % 0 mm
10:44 -8.4 °C -9.6 °C 34635.4 hPa Calm   10.3 km/h 88 % 0 mm
10:49 -8.4 °C -9.6 °C 34635.4 hPa Calm   25.9 km/h 88 % 0 mm
10:54 -8.4 °C -9.6 °C 34635.4 hPa Calm   10.3 km/h 88 % 0 mm
10:59 -8.4 °C -9.4 °C 34635.4 hPa Calm   12.9 km/h 89 % 0 mm
11:04 -8.4 °C -9.5 °C 34645.6 hPa Calm   15.6 km/h 88 % 0 mm
11:09 -8.4 °C -9.5 °C 34645.6 hPa WSW 8 km/h 15.6 km/h 88 % 0 mm
11:14 -8.4 °C -9.5 °C 34645.6 hPa West 2.9 km/h 12.9 km/h 88 % 0 mm
11:19 -8.4 °C -9.5 °C 34645.6 hPa Calm     88 % 0 mm
11:24 -8.3 °C -9.4 °C 34645.6 hPa Calm     88 % 0 mm
11:29 -8.3 °C -9.4 °C 34645.6 hPa WNW 2.9 km/h 18.2 km/h 88 % 0 mm
11:34 -8.3 °C -9.4 °C 34645.6 hPa Calm     88 % 0 mm
11:39 -8.3 °C -9.4 °C 34645.6 hPa Calm   18.2 km/h 88 % 0 mm
11:44 -8.3 °C -9.5 °C 34645.6 hPa WNW 16.3 km/h 15.6 km/h 87 % 0 mm
11:49 -8.3 °C -9.5 °C 34645.6 hPa Calm   15.6 km/h 87 % 0 mm
11:54 -8.2 °C -9.4 °C 34645.6 hPa Calm   18.2 km/h 87 % 0 mm
11:59 -8.2 °C -9.4 °C 34645.6 hPa Calm     87 % 0 mm
12:04 -8.2 °C -9.5 °C 34645.6 hPa West 8 km/h 23.3 km/h 86 % 0 mm
12:09 -8.2 °C -9.5 °C 34645.6 hPa West 16.3 km/h 15.6 km/h 86 % 0 mm
12:14 -8.2 °C -9.5 °C 34645.6 hPa Calm     86 % 0 mm
12:19 -8.1 °C -9.4 °C 34645.6 hPa Calm   10.3 km/h 86 % 0 mm
12:24 -7.9 °C -9.3 °C 34645.6 hPa Calm     86 % 0 mm
12:29 -7.8 °C -9.3 °C 34645.6 hPa WSW 8 km/h 7.7 km/h 85 % 0 mm
12:34 -7.8 °C -9.3 °C 34645.6 hPa SW 11.1 km/h 15.6 km/h 84 % 0 mm
12:39 -7.7 °C -9.2 °C 34659.1 hPa Calm     85 % 0 mm
12:44 -7.6 °C -9.2 °C 34659.1 hPa Calm   5.1 km/h 83 % 0 mm
12:49 -7.4 °C -9.3 °C 34659.1 hPa Calm   12.9 km/h 80 % 0 mm
12:54 -7.4 °C -9.3 °C 34659.1 hPa Calm     81 % 0 mm
12:59 -6.9 °C -9 °C 34659.1 hPa Calm     79 % 0 mm
13:04 -6.8 °C -8.9 °C 34659.1 hPa Calm     78 % 0 mm
13:09 -6.8 °C -9.1 °C 34659.1 hPa Calm   7.7 km/h 77 % 0 mm
13:14 -6.8 °C -9.1 °C 34659.1 hPa Calm   2.6 km/h 77 % 0 mm
13:19 -7.1 °C -9.3 °C 34659.1 hPa Calm   7.7 km/h 77 % 0 mm
13:24 -7.1 °C -9.3 °C 34669.3 hPa Calm     78 % 0 mm
13:28 -7.1 °C -9.2 °C 34669.3 hPa Calm   7.7 km/h 78 % 0 mm
13:34 -7.1 °C -9.1 °C 34669.3 hPa Calm   15.6 km/h 79 % 0 mm
13:39 -6.9 °C -9.1 °C 34669.3 hPa Calm     78 % 0 mm
13:44 -6.9 °C -8.9 °C 34669.3 hPa WSW 5.1 km/h 5.1 km/h 79 % 0 mm
13:49 -6.7 °C -8.9 °C 34669.3 hPa Calm   5.1 km/h 78 % 0 mm
13:54 -6.6 °C -8.9 °C 34659.1 hPa South 14 km/h 12.9 km/h 77 % 0 mm
13:59 -6.6 °C -8.9 °C 34659.1 hPa Calm   7.7 km/h 77 % 0 mm
14:04 -6.7 °C -9 °C 34659.1 hPa Calm   15.6 km/h 77 % 0 mm
14:09 -6.8 °C -9.1 °C 34669.3 hPa SW 2.9 km/h 18.2 km/h 77 % 0 mm
14:14 -6.8 °C -9 °C 34669.3 hPa SSW 8 km/h 15.6 km/h 78 % 0 mm
14:19 -6.8 °C -8.9 °C 34659.1 hPa WSW 16.3 km/h 25.9 km/h 78 % 0 mm
14:24 -6.7 °C -9.1 °C 34669.3 hPa SW 8 km/h 23.3 km/h 77 % 0 mm
14:29 -6.5 °C -8.9 °C 34669.3 hPa SE 2.9 km/h 12.9 km/h 76 % 0 mm
14:34 -6.6 °C -9.1 °C 34669.3 hPa SW 19.2 km/h 28.5 km/h 75 % 0 mm
14:39 -6.7 °C -9.1 °C 34669.3 hPa Calm   18.2 km/h 77 % 0 mm
14:44 -6.6 °C -9 °C 34659.1 hPa Calm   10.3 km/h 76 % 0 mm
14:49 -6.6 °C -9.1 °C 34669.3 hPa WNW 2.9 km/h 33.6 km/h 76 % 0 mm
14:54 -6.4 °C -9 °C 34669.3 hPa West 5.1 km/h 18.2 km/h 75 % 0 mm
14:59 -6.4 °C -9 °C 34669.3 hPa Calm   7.7 km/h 75 % 0 mm
15:04 -6.3 °C -8.9 °C 34669.3 hPa West 14 km/h 12.9 km/h 74 % 0 mm
15:09 -6.3 °C -8.9 °C 34669.3 hPa SSE 5.1 km/h 18.2 km/h 74 % 0 mm
15:14 -6.3 °C -8.9 °C 34669.3 hPa SW 16.3 km/h 23.3 km/h 74 % 0 mm
15:19 -6.4 °C -8.9 °C 34669.3 hPa SW 22 km/h 25.9 km/h 75 % 0 mm
15:24 -6.5 °C -9.1 °C 34669.3 hPa WSW 11.1 km/h 28.5 km/h 75 % 0 mm
15:29 -6.5 °C -9.1 °C 34669.3 hPa Calm   18.2 km/h 75 % 0 mm
15:34 -6.4 °C -9.1 °C 34669.3 hPa West 2.9 km/h 31.1 km/h 74 % 0 mm
15:39 -6.4 °C -9.1 °C 34669.3 hPa West 8 km/h 23.3 km/h 74 % 0 mm
15:44 -6.6 °C -9.2 °C 34669.3 hPa West 19.2 km/h 28.5 km/h 74 % 0 mm
15:49 -6.6 °C -9.2 °C 34669.3 hPa Calm   25.9 km/h 74 % 0 mm
15:54 -6.4 °C -9.1 °C 34669.3 hPa West 16.3 km/h 31.1 km/h 74 % 0 mm
15:59 -6.2 °C -9.1 °C 34669.3 hPa NW 8 km/h 31.1 km/h 72 % 0 mm
16:04 -5.7 °C -8.7 °C 34669.3 hPa SSW 5.1 km/h 10.3 km/h 72 % 0 mm
16:09 -5.9 °C -9 °C 34669.3 hPa WSW 19.2 km/h 38.8 km/h 71 % 0 mm
16:14 -6 °C -9.1 °C 34659.1 hPa SSW 14 km/h 28.5 km/h 71 % 0 mm
16:19 -5.9 °C -9 °C 34669.3 hPa Calm   28.5 km/h 71 % 0 mm
16:24 -5.7 °C -9 °C 34669.3 hPa West 19.2 km/h 41.4 km/h 69 % 0 mm
16:28 -5.9 °C -9.1 °C 34669.3 hPa SW 27.2 km/h 33.6 km/h 70 % 0 mm
16:34 -6 °C -9.1 °C 34659.1 hPa NW 11.1 km/h 36.2 km/h 71 % 0 mm
16:39 -6 °C -9.1 °C 34659.1 hPa WNW 14 km/h 28.5 km/h 71 % 0 mm
16:44 -6.2 °C -9.4 °C 34659.1 hPa West 24.8 km/h 36.2 km/h 70 % 0 mm
16:49 -6.3 °C -9.3 °C 34659.1 hPa WSW 16.3 km/h 36.2 km/h 71 % 0 mm
16:54 -6.2 °C -9.5 °C 34669.3 hPa WSW 30.1 km/h 41.4 km/h 69 % 0 mm
16:59 -6.2 °C -9.3 °C 34669.3 hPa WNW 8 km/h 25.9 km/h 71 % 0 mm
17:04 -6.1 °C -9.2 °C 34659.1 hPa WSW 22 km/h 28.5 km/h 70 % 0 mm
17:09 -6.1 °C -9.2 °C 34659.1 hPa NW 8 km/h 33.6 km/h 70 % 0 mm
17:14 -5.8 °C -9.1 °C 34659.1 hPa NW 24.8 km/h 33.6 km/h 69 % 0 mm
17:19 -6 °C -9.3 °C 34659.1 hPa West 24.8 km/h 28.5 km/h 69 % 0 mm
17:24 -6.1 °C -9.2 °C 34659.1 hPa WSW 30.1 km/h 38.8 km/h 70 % 0 mm
17:29 -6.1 °C -9.3 °C 34659.1 hPa Calm   18.2 km/h 70 % 0 mm
17:33 -6.1 °C -9.1 °C 34659.1 hPa West 22 km/h 36.2 km/h 71 % 0 mm
17:39 -6.2 °C -9.1 °C 34659.1 hPa Calm   28.5 km/h 72 % 0 mm
17:44 -6.2 °C -9.3 °C 34659.1 hPa SSW 8 km/h 28.5 km/h 71 % 0 mm
17:49 -6.2 °C -9.3 °C 34659.1 hPa West 16.3 km/h 23.3 km/h 71 % 0 mm
17:54 -6.2 °C -9.1 °C 34659.1 hPa Calm   23.3 km/h 72 % 0 mm
17:59 -6 °C -9.2 °C 34659.1 hPa WSW 14 km/h 18.2 km/h 70 % 0 mm
18:04 -6 °C -9.1 °C 34659.1 hPa Calm   12.9 km/h 71 % 0 mm
18:09 -6.2 °C -9.2 °C 34659.1 hPa Calm   15.6 km/h 71 % 0 mm
18:14 -6.1 °C -9.2 °C 34659.1 hPa WSW 14 km/h 28.5 km/h 71 % 0 mm
18:19 -6.3 °C -9.3 °C 34659.1 hPa Calm   23.3 km/h 71 % 0 mm
18:24 -6.4 °C -9.3 °C 34659.1 hPa Calm   28.5 km/h 72 % 0 mm
18:29 -6.3 °C -9.2 °C 34659.1 hPa Calm   23.3 km/h 72 % 0 mm
18:34 -6.3 °C -9.2 °C 34659.1 hPa West 19.2 km/h 25.9 km/h 72 % 0 mm
18:39 -6.5 °C -9.4 °C 34659.1 hPa Calm   25.9 km/h 72 % 0 mm
18:44 -6.3 °C -9.2 °C 34659.1 hPa WSW 14 km/h 15.6 km/h 72 % 0 mm
18:49 -6.2 °C -9.2 °C 34645.6 hPa SE 8 km/h 15.6 km/h 71 % 0 mm
18:54 -6.2 °C -9.3 °C 34659.1 hPa WNW 22 km/h 25.9 km/h 70 % 0 mm
18:59 -6.2 °C -9.3 °C 34659.1 hPa West 14 km/h 18.2 km/h 71 % 0 mm
19:04 -6.3 °C -9.3 °C 34659.1 hPa SW 8 km/h 36.2 km/h 71 % 0 mm
19:09 -6.4 °C -9.2 °C 34659.1 hPa NNW 16.3 km/h 23.3 km/h 73 % 0 mm
19:14 -6.5 °C -9.3 °C 34659.1 hPa NNW 2.9 km/h 25.9 km/h 73 % 0 mm
19:19 -6.7 °C -9.3 °C 34659.1 hPa Calm   28.5 km/h 74 % 0 mm
19:23 -6.7 °C -9.3 °C 34659.1 hPa Calm     74 % 0 mm
19:29 -6.7 °C -9.4 °C 34659.1 hPa SSW 11.1 km/h 31.1 km/h 74 % 0 mm
19:34 -6.8 °C -9.3 °C 34659.1 hPa Calm   10.3 km/h 75 % 0 mm
19:39 -6.8 °C -9.3 °C 34645.6 hPa WSW 19.2 km/h 18.2 km/h 75 % 0 mm
19:44 -6.8 °C -9.4 °C 34659.1 hPa SW 16.3 km/h 25.9 km/h 75 % 0 mm
19:49 -6.8 °C -9.4 °C 34645.6 hPa Calm   18.2 km/h 75 % 0 mm
19:54 -6.8 °C -9.3 °C 34645.6 hPa WNW 14 km/h 18.2 km/h 75 % 0 mm
19:59 -6.8 °C -9.4 °C 34645.6 hPa Calm   25.9 km/h 74 % 0 mm
20:04 -6.8 °C -9.4 °C 34659.1 hPa West 2.9 km/h 23.3 km/h 75 % 0 mm
Amsterdam Osdorp (NL)
Gegevens verzameld door Weather Underground - 2 mb

Script ontwikkeld door  Jim McMurry - jmcmurry@mwt.net Aangepast voor de template door  Wim van der Kuil - Leuven-Template.eu

Apparatuur in gebruik:

Weerstation
Davis VP2 Solar/UV

Weerprogramma
Meteobridge

Weercomputer
MeteoBridge PRO - RF

Webleverancier
My provider

Davis VP2 Solar/UV

Meteobridge

MeteoBridge PRO - RF

My provider